LUSAT (LO-19)

Last updated on Mon Nov 03 2025 00:03:21 GMT+0000 (Coordinated Universal Time)

1 20442U 90005G 25306.49658318 .00000198 00000+0 87713-4 0 9993 2 20442 98.8989 316.9176 0012195 146.6273 213.5681 14.34019138869907
UTC large
Height (km)
Speed (km/s)
/
Latitude / Longitude
Inclination (degrees)
Orbital Period (minutes)
Azimuth
Elevation
Range (km)
Doppler Factor

Next 0 passes for location: London (51.5072 / 0.1276)

Sorry there are no passes over London.